Regional Weather Roundup
Issued by NWS Goodland, KS

Home | Current Version | Previous Version | Graphics & Text | Print | Product List | Glossary On
Versions: 1 2 3 4 5 6 7 8 9 10 11 12 13 14 15 16 17 18 19 20 21 22 23 24 25 26 27 28 29 30 31 32 33 34 35 36 37 38 39 40 41 42 43 44 45 46 47 48 49 50
000
ASUS43 KGLD 200759
RWRGLD

GOODLAND FORECAST AREA HOURLY WEATHER ROUNDUP
NATIONAL WEATHER SERVICE GOODLAND KS
100 AM MST SAT DEC 20 2014

...OFFICIAL OBSERVATIONS...

CITY           SKY/WX    TMP DP  RH WIND       PRES   REMARKS
GOODLAND KS    PTCLDY    31  28  89 W10       30.02F
HILL CITY KS   PTCLDY    30  26  85 SW6       30.05F
IMPERIAL NEB   PTCLDY    27  19  72 W7        30.02S
MCCOOK NEB     CLEAR     25  22  88 W7        30.03F
AKRON CO       MOCLDY    31  22  69 SW15      29.99F
BURLINGTON CO  PTCLDY    31  27  85 SW10      30.02F
LIMON CO       MOCLDY    19  16  88 N7        30.02S
$$

...UNOFFICIAL OBSERVATIONS...

CITY           SKY/WX    TMP DP  RH WIND       PRES   REMARKS
COLBY KS       CLEAR     30  30 100 SW8       30.04F
GOVE KS          N/A     29  32 100 MISG        N/A
NORTON KS      CLEAR     25  21  86 SW5       30.03S
SHARON SPRINGS   N/A     27  25  91 W7          N/A
KIT CARSON CO    N/A     26  23  89 MISG        N/A
$$



USA.gov is the U.S. government's official web portal to all federal, state and local government web resources and services.